Weather Service Report


337 
FPUS83 KFGF 222131
OPUFGF
PRAIRIE TO PINES WEATHER ROUNDUP
NATIONAL WEATHER SERVICE EASTERN NORTH DAKOTA/GRAND FORKS ND
400 PM CDT WED OCT 22 2014

 **SATELLITE DATA USED TO AUGMENT SKY COVER AT AUTOMATED STATIONS**
 *****  WEATHER ACROSS EASTERN NORTH DAKOTA  *****
  
CITY           SKY/WX    TMP DP  RH WIND       PRES   REMARKS
GRAND FORKS    CLOUDY    63  48  58 SW18      29.80R                  
GRAND FORKS AF LGT RAIN  59  54  82 SW10      29.81R                  
GRAND CITY NWS   N/A     59 N/A N/A SW14        N/A                   
BUXTON           N/A     62  50  63 SW14        N/A                   
DEVILS LAKE    CLOUDY    54  46  76 SW9       29.77F                  
FARGO          CLOUDY    66  50  56 SW17      29.84R                  
WAHPETON ARPT  CLOUDY    66  46  48 S13       29.86S                  
$$

 *****  WEATHER ACROSS CENTRAL AND WESTERN NORTH DAKOTA  *****
  
CITY           SKY/WX    TMP DP  RH WIND       PRES   REMARKS
JAMESTOWN      CLOUDY    54  51  90 SW7       29.84R                  
BISMARCK       PTSUNNY   68  40  35 W15       29.84S                  
MINOT          MOSUNNY   61  40  45 W16G25    29.77R                  
MINOT AFB      PTSUNNY   62  42  49 W22G29    29.75R                  
GARRISON         N/A     64  40  41 W21G29    29.80R                  
WILLISTON      MOSUNNY   62  41  46 W20       29.80F                  
DICKINSON      SUNNY     62  35  36 W23G31    29.85S                  
HETTINGER      SUNNY     63  32  31 W23G29    29.92R                  
$$

 *****  OTHER OBSERVATIONS NORTHEAST NORTH DAKOTA  *****
  
CITY           SKY/WX    TMP DP  RH WIND       PRES   REMARKS
WALHALLA         N/A     59  50  72 S8G18     29.76R                  
LANGDON        MOCLDY    54  50  87 SW13      29.76F FOG              
CAVALIER       LGT RAIN  59  48  67 SW12G23   29.75S                  
GRAFTON        LGT RAIN  57  54  88 SW12      29.78R                  
CANDO          FAIR      59  45  58 SW15      29.77S                  
FORT TOTTEN      N/A     53  50  88 S5        29.95S                  
ROLLA          FAIR      57  45  62 SW14      29.75S                  
RUGBY          FAIR      63  45  51 W15G24    29.76S                  
 ***** THE ABOVE OBSERVATIONS ARE NON NWS ARE NOT QUALITY
        CONTROLLED AND MAY MIS-REPORT RAIN FOR SNOW...
$$

 *****  OTHER OBSERVATIONS SOUTHEAST NORTH DAKOTA *****
  
CITY           SKY/WX    TMP DP  RH WIND       PRES   REMARKS
COOPERSTOWN    NOT AVBL                                               
VALLEY CITY    LGT RAIN  55  55 100 SW7       29.84R                  
OAKES            N/A     55  55 100 SW8       29.88R                  
GWINNER        MOCLDY    55  55 100 S7        29.88R                  
SHEYENNE NWR     N/A     58  51  78 W7        29.95S                  
BUFFALO          N/A     55  53  91 S5          N/A                   
WYNDMERE         N/A     59  52  77 W8          N/A                   
 ***** THE ABOVE OBSERVATIONS ARE NON NWS ARE NOT QUALITY
       CONTROLLED AND MAY MIS-REPORT RAIN FOR SNOW...
$$

  *****  WEATHER ACROSS NORTHERN MINNESOTA  *****     
  
CITY           SKY/WX    TMP DP  RH WIND       PRES   REMARKS
FLAG ISLAND    PTSUNNY   54  46  76 S20       29.82R                  
WARROAD        PTSUNNY   63  48  59 S14G21    29.83R                  
ROSEAU         PTSUNNY   63  48  59 S21G29    29.82R                  
HALLOCK        RAIN      61  48  63 S18       29.78R                  
THF RVR FALLS  CLOUDY    63  46  55 S17       29.83S                  
HALSTAD          N/A     64  45  48 SW14        N/A                   
FOSSTON        CLOUDY    61  45  55 S22G28    29.86F                  
BAUDETTE       PTSUNNY   61  44  53 S20G28    29.86F                  
WASKISH        MOSUNNY   61  45  55 S9G21     29.90R                  
CROOKSTON      CLOUDY    64  46  52 S20       29.83S                  
$$
  *****  WEATHER ACROSS CENTRAL AND WEST MINNESOTA  *****     
  
CITY           SKY/WX    TMP DP  RH WIND       PRES   REMARKS
BEMIDJI        CLOUDY    58  44  58 S16       29.90S                  
PARK RAPIDS    CLOUDY    60  43  53 S20       29.92F                  
WADENA         CLOUDY    61  45  55 S13G20    29.93S                  
DETROIT LAKES  CLOUDY    61  45  55 S17G24    29.90S                  
MOORHEAD       CLOUDY    66  52  59 SW15G22   29.84S                  
FERGUS FALLS   CLOUDY    66  45  45 S20       29.88F                  
ELBOW LAKE     CLOUDY    65  48  53 S18       29.89F                  
MORRIS MN      CLOUDY    66  50  55 S16G22    29.89F                  
STAPLES        PTSUNNY   57  43  58 SE12G22   29.94F                  
WHEATON        PTSUNNY   64  50  59 S8        29.89S                  
$$
  *****  WEATHER ELSEWHERE ACROSS MINNESOTA  *****     
  
CITY           SKY/WX    TMP DP  RH WIND       PRES   REMARKS
DULUTH         PTSUNNY   55  40  56 SE12      30.06F                  
INTRNTL FALLS  PTSUNNY   61  43  51 S9G23     29.91F                  
ELY            CLOUDY    54  36  50 S14G23    30.04F                  
CLOQUET        PTSUNNY   55  37  50 SE9G17    30.05F                  
BRAINERD       PTSUNNY   57  42  57 S14G21    29.99S                  
HIBBING        CLOUDY    58  39  49 S16G22    30.01F                  
ALEXANDRIA     PTSUNNY   62  45  53 S20G25    29.95S                  
SAINT CLOUD    MOSUNNY   63  43  48 SE22      30.00F                  
MINNEAPOLIS    MOSUNNY   60  41  49 SE24G30   30.07F                  
$$

  *****  WEATHER ACROSS SOUTH DAKOTA  *****
  
CITY           SKY/WX    TMP DP  RH WIND       PRES   REMARKS
SIOUX FALLS    CLOUDY    69  53  56 SW7       29.93R                  
BROOKINGS      NOT AVBL                                               
WATERTOWN      RAIN      54  53  97 W6        29.91R FOG              
HURON          CLOUDY    57  54  89 W9        29.94R                  
SISSETON         N/A     59  52  77 W13       29.88R                  
ABERDEEN       CLOUDY    57  53  86 W7        29.90S                  
MITCHELL         N/A     57  55  93 W9        29.95R                  
PIERRE         MOSUNNY   64  42  44 NW14      29.93S                  
MOBRIDGE       MOSUNNY   65  43  44 W12       29.88R                  
RAPID CITY     SUNNY     64  28  25 CALM      29.99S                  
$$

  *****  SOME WEATHER IN NEARBY STATES *****
  
CITY           SKY/WX    TMP DP  RH WIND       PRES   REMARKS
GLASGOW MT     SUNNY     63  32  31 W17       29.84F                  
GREAT FALLS MT SUNNY     58  32  37 SW29G38   29.88S                  
CHEYENNE WY    MOSUNNY   63  29  27 W14G29    30.08F                  
SCOTTSBLUFF NE MOSUNNY   67  30  25 NW14G20   30.03F                  
OMAHA NE       PTSUNNY   75  53  46 SE20      29.99F                  
DES MOINES IA  MOSUNNY   67  47  48 S15       30.12F                  
DAVENPORT IA   SUNNY     60  36  40 SE14      30.24F                  
CHICAGO IL     SUNNY     54  38  54 E8        30.29F                  
EAU CLAIRE WI  PTSUNNY   59  33  37 SE10      30.16F                  
LA CROSSE WI   SUNNY     61  37  41 S10       30.19F                  
$$

  *****  SOME NATIONAL WEATHER *****
  
CITY           SKY/WX    TMP DP  RH WIND       PRES   REMARKS
LA GUARDIA NY  RAIN      54  49  83 N14       29.83S                  
RALEIGH NC     PTSUNNY   64  41  42 NW7       29.97S                  
ATLANTA GA     SUNNY     70  37  29 N6        30.05F                  
NEW ORLEANS LA SUNNY     79  53  40 NE8       30.02F                  
OKLAHOMA CITY  PTSUNNY   78  57  48 S14       30.08F                  
ALBUQUERQUE NM PTSUNNY   72  41  32 CALM      30.14F                  
SALT LAKE CITY MOSUNNY   62  33  33 NW8       30.16F                  
LOS ANGELES CA MOSUNNY   73  61  64 W14       29.91F                  
BOISE ID       CLOUDY    62  31  31 SE17G25   30.07F                  
SEATTLE WA     LGT RAIN  57  54  89 SE8       29.69F                  
$$

*** WEATHER ACROSS MANITOBA...SASKATCHEWAN AND ONTARIO ***
                ***ONTARIO***
  
CITY           SKY/WX    TMP DP  RH WIND       PRES   REMARKS
GERALDTON      MOSUNNY   48  32  53 S13       30.19F                  
THUNDER BAY    MOSUNNY   50  34  53 SE13      30.19F                  
SIOUX LOOKOUT  PTSUNNY   57  39  51 S15G21    29.94                   
TORONTO        MOSUNNY   54  39  58 N12       30.23S                  
BIG TROUT LK   SUNNY     57  43  58 S14G20    29.82F                  
PICKLE LAKE    MOSUNNY   57  37  47 S15G25    29.96F                  
DRYDEN         MOSUNNY   61  41  48 S14G23    29.90F                  
KENORA         PTSUNNY   59  45  58 S17G26    29.82                   
$$      
                *** MANITOBA***
  
CITY           SKY/WX    TMP DP  RH WIND       PRES   REMARKS
BRANDON        PTSUNNY   61  46  59 SW21      29.67                   
DAUPHIN        MOSUNNY   63  48  59 SW10      29.60R                  
ISLAND LAKE    PTSUNNY   59  45  58 S10       29.67S                  
PILOT MOUND      N/A     59  45  58 S15         N/A                   
THE PAS        PTSUNNY   52  45  76 N8        29.60R                  
THOMPSON       CLOUDY    50  43  76 E7        29.64R                  
WINNIPEG       PTSUNNY   63  46  55 S28G36    29.72S                  
LYNN LAKE      PTSUNNY   45  41  87 N10       29.68R                  
CHURCHILL      CLOUDY    37  37 100 NE10      29.76R FOG              
GILLAM         CLOUDY    50  41  71 NE5       29.67                   
$$
                ***SASKATCHEWAN***
  
CITY           SKY/WX    TMP DP  RH WIND       PRES   REMARKS
ESTEVAN        CLOUDY    54  45  71 W17       29.76R                  
KINDERSLEY     MOSUNNY   59  36  41 VRB2      29.74                   
LLOYDMINSTER   MOSUNNY   61  32  33 SE8       29.70F                  
PRINCE ALBERT  LGT RAIN  50  46  87 NW2       29.69R                  
REGINA         CLOUDY    50  48  93 W13       29.75R                  

Return to Home page


Western Regional Climate Center, wrcc@dri.edu